DW7564 Weather Reports


time (UTC)temp
C
wind
direction
speed
KPH
gust
KPH
rain 1hr
cm
rain 24hr
cm
rain mn
cm
humidity
%
barometer
mb
20260506113026 12 130 0.0 6.4 0.00 0.00 0.00 88 1018.0
20260506111524 12 46 0.0 0.0 0.00 0.00 0.00 87 1017.8
20260506110025 12 46 0.0 0.0 0.00 0.00 0.00 88 1017.6
20260506104534 12 46 0.0 0.0 0.00 0.00 0.00 88 1017.3
20260506103023 12 46 0.0 0.0 0.00 0.00 0.00 88 1017.2
20260506101507 12 46 0.0 0.0 0.00 0.00 0.00 88 1017.1
20260506100006 12 46 0.0 0.0 0.00 0.00 0.00 88 1017.0
20260506094505 12 46 0.0 0.0 0.00 0.00 0.00 88 1017.0
20260506093005 12 46 0.0 0.0 0.00 0.00 0.00 87 1016.9
20260506091503 12 46 0.0 0.0 0.00 0.00 0.00 87 1016.9
20260506090002 12 46 0.0 0.0 0.00 0.00 0.00 87 1016.8
20260506084502 12 46 0.0 0.0 0.00 0.00 0.00 87 1016.9
20260506083049 12 46 0.0 0.0 0.00 0.00 0.00 87 1016.9
20260506081555 12 46 0.0 0.0 0.00 0.00 0.00 87 1016.8
20260506073046 12 46 0.0 0.0 0.00 0.00 0.00 87 1016.6
20260506071544 12 46 0.0 0.0 0.00 0.00 0.00 87 1016.5
20260506061527 12 46 0.0 0.0 0.00 0.00 0.00 87 1016.3
20260506044521 12 46 0.0 0.0 0.00 0.00 0.00 88 1015.6
20260506043007 12 46 0.0 0.0 0.00 0.00 0.00 88 1015.4
20260506041506 12 46 0.0 3.2 0.00 0.00 0.00 87 1015.3
20260506040006 13 337 0.0 0.0 0.00 0.00 0.00 85 1015.2
20260506034506 13 337 0.0 0.0 0.00 0.00 0.00 85 1015.0
20260506033007 13 337 0.0 0.0 0.00 0.00 0.00 84 1014.8
20260506031505 14 337 0.0 0.0 0.00 0.00 0.00 83 1014.7
20260506030004 14 337 0.0 0.0 0.00 0.00 0.00 83 1014.4
20260506024504 15 337 0.0 1.6 0.00 0.00 0.00 82 1014.5
20260506023110 15 46 0.0 0.0 0.00 0.00 0.00 81 1014.4
20260506021606 15 46 0.0 0.0 0.00 0.00 0.00 80 1014.5
20260506020044 15 46 0.0 0.0 0.00 0.00 0.00 80 1014.4
20260506014542 15 346 0.0 0.0 0.00 0.00 0.00 80 1014.3
20260506013048 15 346 0.0 0.0 0.00 0.00 0.00 80 1014.2
20260506011546 15 346 0.0 0.0 0.00 0.00 0.00 81 1014.3
20260506010041 15 355 0.0 0.0 0.00 0.00 0.00 81 1014.2
20260506004540 15 355 0.0 0.0 0.00 0.00 0.00 81 1014.3
20260506003041 15 355 0.0 3.2 0.00 0.00 0.00 81 1014.4
20260506001526 15 355 0.0 0.0 0.00 0.00 0.00 81 1014.4
20260506000025 15 346 0.0 6.4 0.00 0.00 0.00 81 1014.6
20260505234525 15 351 0.0 0.0 0.00 0.00 0.00 81 1014.6
20260505233023 15 351 0.0 0.0 0.00 0.00 0.00 78 1014.6
20260505231535 15 351 0.0 0.0 0.00 0.00 0.00 80 1014.6
20260505230024 15 351 0.0 0.0 0.00 0.00 0.00 81 1014.7
20260505224518 15 329 0.0 6.4 0.00 0.00 0.00 81 1014.8
20260505223018 15 327 0.0 3.2 0.00 0.00 0.00 80 1014.9
20260505221517 14 323 0.0 6.4 0.00 0.00 0.00 81 1014.9
20260505220019 15 348 0.0 0.0 0.00 0.00 0.00 80 1015.0
20260505214514 15 348 0.0 3.2 0.00 0.00 0.00 83 1015.0
20260505213017 15 348 0.0 4.8 0.00 0.00 0.00 81 1015.1
20260505211513 14 327 0.0 3.2 0.00 0.00 0.00 82 1015.1
20260505210013 14 327 0.0 4.8 0.00 0.00 0.00 82 1015.1
20260505204556 14 14 0.0 6.4 0.00 0.00 0.00 84 1015.3
20260505203119 13 345 0.0 6.4 0.00 0.00 0.00 84 1015.2
20260505201601 13 342 1.6 9.7 0.00 0.00 0.00 85 1015.4
20260505200055 13 31 0.0 4.8 0.00 0.00 0.00 85 1015.4
20260505194549 13 62 0.0 3.2 0.00 0.00 0.00 87 1015.4
20260505193049 13 319 3.2 6.4 0.00 0.00 0.00 87 1015.5
20260505191600 12 315 0.0 6.4 0.00 0.00 0.00 87 1015.4
20260505190046 12 313 0.0 6.4 0.00 0.00 0.00 87 1015.5
20260505184633 12 323 0.0 0.0 0.00 0.00 0.00 88 1015.5
20260505183031 12 315 1.6 6.4 0.00 0.00 0.00 87 1015.5
20260505181535 12 271 0.0 8.0 0.00 0.00 0.00 86 1015.4
20260505180027 11 265 0.0 4.8 0.00 0.00 0.00 85 1015.5
20260505174530 11 302 0.0 6.4 0.00 0.00 0.00 82 1015.4
20260505173022 11 304 0.0 4.8 0.00 0.00 0.00 80 1015.3
20260505171518 11 270 0.0 0.0 0.00 0.00 0.00 77 1015.2
20260505170020 10 280 0.0 0.0 0.00 0.00 0.00 76 1015.2
20260505164558 10 250 0.0 3.2 0.00 0.00 0.00 76 1015.2
20260505163057 10 277 0.0 0.0 0.00 0.00 0.00 76 1015.1
20260505161546 10 259 0.0 6.4 0.00 0.00 0.00 77 1015.1
20260505153043 10 242 0.0 0.0 0.00 0.00 0.00 77 1014.9
20260505151556 10 205 0.0 0.0 0.00 0.00 0.00 77 1014.8
20260505130106 10 272 0.0 4.8 0.00 0.00 0.00 84 1013.9
20260505124559 10 272 0.0 0.0 0.00 0.00 0.00 85 1013.9
20260505123059 10 272 0.0 0.0 0.00 0.00 0.00 86 1013.8
20260505121625 10 272 0.0 0.0 0.00 0.00 0.00 87 1013.7
20260505120055 10 272 0.0 8.0 0.00 0.00 0.00 87 1013.6
20260505114539 10 224 0.0 3.2 0.00 0.00 0.00 88 1013.5